Location: Unspecified
(53.6186°N, 1.3184°W)
Time: 20:43:14
(UTC+01:00)

ISS - Visible Passes

Search period start: 17 July 2018 00:00
Search period end: 27 July 2018 00:00
Orbit: 402 x 408 km, 51.6° (Epoch: 18 July)

Date Brightness Start Highest point End Pass type
(mag) Time Alt. Az. Time Alt. Az. Time Alt. Az.
17 Jul -2.7 00:41:11 27° SE 00:41:11 27° SE 00:43:27 10° E visible
17 Jul -3.8 02:13:48 12° WSW 02:16:44 59° S 02:20:00 10° E visible
17 Jul -3.6 03:49:51 10° W 03:53:03 48° SSW 03:56:15 10° ESE visible
17 Jul -1.9 23:50:11 15° ESE 23:50:11 15° ESE 23:51:11 10° E visible
18 Jul -3.7 01:22:46 21° WSW 01:24:42 52° SSE 01:27:55 10° E visible
18 Jul -3.8 02:57:47 10° W 03:01:01 57° S 03:04:16 10° ESE visible
18 Jul -1.7 22:58:10 12° ESE 22:58:10 12° ESE 22:58:39 10° ESE visible
19 Jul -3.5 00:30:34 18° SW 00:32:40 42° SSE 00:35:50 10° E visible
19 Jul -3.9 02:05:42 10° W 02:08:58 62° S 02:12:14 10° ESE visible
19 Jul -3.2 03:42:10 10° W 03:45:12 34° SSW 03:48:14 10° SE visible
19 Jul -3.1 23:37:42 10° SW 23:40:41 32° SSE 23:43:40 10° E visible
20 Jul -3.9 01:13:38 10° WSW 01:16:54 61° S 01:20:09 10° E visible
20 Jul -3.6 02:50:01 10° W 02:53:11 44° SSW 02:56:22 10° ESE visible
20 Jul -2.7 22:46:01 10° SSW 22:48:43 24° SSE 22:51:25 10° E visible
21 Jul -3.8 00:21:35 10° WSW 00:24:49 55° S 00:28:03 10° E visible
21 Jul -3.8 01:57:55 10° W 02:01:08 54° S 02:04:22 10° ESE visible
21 Jul -2.6 03:34:34 10° W 03:37:13 23° SSW 03:39:53 10° SSE visible
21 Jul -3.6 23:29:35 10° WSW 23:32:45 46° SSE 23:35:56 10° E visible
22 Jul -3.9 01:05:47 10° W 01:09:03 61° S 01:12:18 10° ESE visible
22 Jul -3.1 02:42:17 10° W 02:45:15 31° SSW 02:48:12 10° SE visible
22 Jul -3.2 22:37:39 10° SW 22:40:42 36° SSE 22:43:45 10° E visible
23 Jul -3.9 00:13:41 10° W 00:16:56 62° S 00:20:12 10° E visible
23 Jul -3.5 01:50:05 10° W 01:53:13 41° SSW 01:53:14 41° SSW visible
23 Jul -3.8 23:21:35 10° WSW 23:24:49 58° S 23:28:04 10° E visible
24 Jul -3.7 00:57:55 10° W 01:01:08 51° SSW 01:01:36 46° SSE visible
24 Jul -3.6 22:29:31 10° WSW 22:32:42 49° SSE 22:35:55 10° E visible
25 Jul -3.8 00:05:46 10° W 00:09:01 59° S 00:10:36 27° ESE visible
25 Jul -1.7 01:42:19 10° W 01:43:13 16° WSW 01:43:13 16° WSW visible
25 Jul -3.8 23:13:37 10° W 23:16:52 62° S 23:19:48 12° E visible
26 Jul -2.9 00:50:03 10° W 00:52:25 32° SW 00:52:25 32° SW visible
26 Jul -3.8 22:21:29 10° WSW 22:24:42 60° S 22:27:58 10° E visible
